Time,TemperatureF,DewpointF,PressureIn,WindDirection,WindDirectionDegrees,WindSpeedMPH,WindSpeedGustMPH,Humidity,HourlyPrecipIn,Conditions,Clouds,dailyrainin,SolarRadiationWatts/m^2,SoftwareType,DateUTC
2013-10-31 00:21:00,40.0,37.0,-100.00,East,97,1.0,4.0,88,0.00,,,0.01,0.000000,,2013-10-31 07:21:00,
2013-10-31 00:32:00,40.0,37.0,-100.00,East,97,1.0,4.0,88,0.00,,,0.01,0.000000,,2013-10-31 07:32:00,
2013-10-31 00:42:00,40.0,37.0,-100.00,East,97,1.0,4.0,88,0.00,,,0.01,0.000000,,2013-10-31 07:42:00,
2013-10-31 00:52:00,40.0,37.0,-100.00,East,97,1.0,4.0,88,0.00,,,0.01,0.000000,,2013-10-31 07:52:00,
2013-10-31 01:22:00,40.0,36.0,-100.00,ESE,102,1.0,5.0,87,0.00,,,0.01,0.000000,,2013-10-31 08:22:00,
2013-10-31 01:32:00,40.0,36.0,-100.00,ESE,102,1.0,5.0,87,0.00,,,0.01,0.000000,,2013-10-31 08:32:00,
2013-10-31 01:42:00,40.0,36.0,-100.00,ESE,102,1.0,5.0,87,0.00,,,0.01,0.000000,,2013-10-31 08:42:00,
2013-10-31 01:52:00,40.0,36.0,-100.00,ESE,102,1.0,5.0,87,0.00,,,0.01,0.000000,,2013-10-31 08:52:00,
2013-10-31 02:21:00,40.0,35.0,-100.00,ESE,103,2.0,5.0,82,0.00,,,0.01,0.000000,,2013-10-31 09:21:00,
2013-10-31 02:33:00,40.0,35.0,-100.00,ESE,103,2.0,5.0,82,0.00,,,0.01,0.000000,,2013-10-31 09:33:00,
2013-10-31 02:43:00,40.0,35.0,-100.00,ESE,103,2.0,5.0,82,0.00,,,0.01,0.000000,,2013-10-31 09:43:00,
2013-10-31 02:53:00,40.0,35.0,-100.00,ESE,103,2.0,5.0,82,0.00,,,0.01,0.000000,,2013-10-31 09:53:00,
2013-10-31 03:23:00,37.0,33.0,-100.00,East,91,0.0,7.0,86,0.00,,,0.01,0.000000,,2013-10-31 10:23:00,
2013-10-31 03:33:00,37.0,33.0,-100.00,East,91,0.0,7.0,86,0.00,,,0.01,0.000000,,2013-10-31 10:33:00,
2013-10-31 03:42:00,37.0,33.0,-100.00,East,91,0.0,7.0,86,0.00,,,0.01,0.000000,,2013-10-31 10:42:00,
2013-10-31 03:53:00,37.0,33.0,-100.00,East,91,0.0,7.0,86,0.00,,,0.01,0.000000,,2013-10-31 10:53:00,
2013-10-31 04:21:00,38.0,34.0,-100.00,East,94,0.0,6.0,85,0.00,,,0.01,0.000000,,2013-10-31 11:21:00,
2013-10-31 04:33:00,38.0,34.0,-100.00,East,94,0.0,6.0,85,0.00,,,0.01,0.000000,,2013-10-31 11:33:00,
2013-10-31 04:42:00,38.0,34.0,-100.00,East,94,0.0,6.0,85,0.00,,,0.01,0.000000,,2013-10-31 11:42:00,
2013-10-31 04:52:00,38.0,34.0,-100.00,East,94,0.0,6.0,85,0.00,,,0.01,0.000000,,2013-10-31 11:52:00,
2013-10-31 05:21:00,37.0,35.0,-100.00,ESE,102,0.0,4.0,91,0.00,,,0.01,0.000000,,2013-10-31 12:21:00,
2013-10-31 05:32:00,37.0,35.0,-100.00,ESE,102,0.0,4.0,91,0.00,,,0.01,0.000000,,2013-10-31 12:32:00,
2013-10-31 05:42:00,37.0,35.0,-100.00,ESE,102,0.0,4.0,91,0.00,,,0.01,0.000000,,2013-10-31 12:42:00,
2013-10-31 05:52:00,37.0,35.0,-100.00,ESE,102,0.0,4.0,91,0.00,,,0.01,0.000000,,2013-10-31 12:52:00,
2013-10-31 06:22:00,37.0,32.0,-100.00,East,96,0.0,5.0,83,0.00,,,0.01,0.000000,,2013-10-31 13:22:00,
2013-10-31 06:32:00,37.0,32.0,-100.00,East,96,0.0,5.0,83,0.00,,,0.01,0.000000,,2013-10-31 13:32:00,
2013-10-31 06:42:00,37.0,32.0,-100.00,East,96,0.0,5.0,83,0.00,,,0.01,0.000000,,2013-10-31 13:42:00,
2013-10-31 06:52:00,37.0,32.0,-100.00,East,96,0.0,5.0,83,0.00,,,0.01,0.000000,,2013-10-31 13:52:00,
2013-10-31 07:21:00,37.0,32.0,-100.00,East,90,1.0,7.0,82,0.00,,,0.01,0.000000,,2013-10-31 14:21:00,
2013-10-31 07:32:00,37.0,32.0,-100.00,East,90,1.0,7.0,82,0.00,,,0.01,0.000000,,2013-10-31 14:32:00,
2013-10-31 07:42:00,37.0,32.0,-100.00,East,90,1.0,7.0,82,0.00,,,0.01,0.000000,,2013-10-31 14:42:00,
2013-10-31 07:52:00,37.0,32.0,-100.00,East,90,1.0,7.0,82,0.00,,,0.01,0.000000,,2013-10-31 14:52:00,
2013-10-31 12:52:00,64.0,40.0,-100.00,SE,145,3.0,5.0,42,-99.99,,,-99.99,781.000000,,2013-10-31 19:52:00,
2013-10-31 13:22:00,65.0,40.0,-100.00,WSW,250,3.0,7.0,40,0.00,,,-99.99,835.000000,,2013-10-31 20:22:00,
2013-10-31 13:32:00,65.0,40.0,-100.00,WSW,250,3.0,7.0,40,0.00,,,-99.99,835.000000,,2013-10-31 20:32:00,
2013-10-31 13:42:00,65.0,40.0,-100.00,WSW,250,3.0,7.0,40,0.00,,,-99.99,835.000000,,2013-10-31 20:42:00,
2013-10-31 13:52:00,65.0,40.0,-100.00,WSW,250,3.0,7.0,40,0.00,,,-99.99,835.000000,,2013-10-31 20:52:00,
2013-10-31 14:21:00,67.0,43.0,-100.00,WSW,239,4.0,7.0,41,0.00,,,-99.99,812.000000,,2013-10-31 21:21:00,
2013-10-31 14:33:00,67.0,43.0,-100.00,WSW,239,4.0,7.0,41,0.00,,,-99.99,812.000000,,2013-10-31 21:33:00,
2013-10-31 14:43:00,67.0,43.0,-100.00,WSW,239,4.0,7.0,41,0.00,,,-99.99,812.000000,,2013-10-31 21:43:00,
2013-10-31 14:54:00,67.0,43.0,-100.00,WSW,239,4.0,7.0,41,0.00,,,-99.99,812.000000,,2013-10-31 21:54:00,
2013-10-31 15:24:00,67.0,43.0,-100.00,West,262,3.0,8.0,42,0.00,,,-99.99,716.000000,,2013-10-31 22:24:00,
2013-10-31 15:33:00,67.0,43.0,-100.00,West,262,3.0,8.0,42,0.00,,,-99.99,716.000000,,2013-10-31 22:33:00,
2013-10-31 15:43:00,67.0,43.0,-100.00,West,262,3.0,8.0,42,0.00,,,-99.99,716.000000,,2013-10-31 22:43:00,
2013-10-31 15:53:00,67.0,43.0,-100.00,West,262,3.0,8.0,42,0.00,,,-99.99,716.000000,,2013-10-31 22:53:00,
2013-10-31 16:22:00,67.0,43.0,-100.00,West,265,2.0,8.0,42,0.00,,,-99.99,549.000000,,2013-10-31 23:22:00,
2013-10-31 16:34:00,67.0,43.0,-100.00,West,265,2.0,8.0,42,0.00,,,-99.99,549.000000,,2013-10-31 23:34:00,
2013-10-31 16:43:00,67.0,43.0,-100.00,West,265,2.0,8.0,42,0.00,,,-99.99,549.000000,,2013-10-31 23:43:00,
2013-10-31 16:53:00,67.0,43.0,-100.00,West,265,2.0,8.0,42,0.00,,,-99.99,549.000000,,2013-10-31 23:53:00,
2013-10-31 17:21:00,66.0,43.0,-100.00,SW,216,2.0,8.0,43,0.00,,,-99.99,339.000000,,2013-11-01 00:21:00,
2013-10-31 17:32:00,66.0,43.0,-100.00,SW,216,2.0,8.0,43,0.00,,,-99.99,339.000000,,2013-11-01 00:32:00,
2013-10-31 17:42:00,66.0,43.0,-100.00,SW,216,2.0,8.0,43,0.00,,,-99.99,339.000000,,2013-11-01 00:42:00,
2013-10-31 17:52:00,66.0,43.0,-100.00,SW,216,2.0,8.0,43,0.00,,,-99.99,339.000000,,2013-11-01 00:52:00,
2013-10-31 18:22:00,57.0,43.0,-100.00,ESE,113,0.0,6.0,59,0.00,,,-99.99,105.000000,,2013-11-01 01:22:00,
2013-10-31 18:32:00,57.0,43.0,-100.00,ESE,113,0.0,6.0,59,0.00,,,-99.99,105.000000,,2013-11-01 01:32:00,
2013-10-31 18:42:00,57.0,43.0,-100.00,ESE,113,0.0,6.0,59,0.00,,,-99.99,105.000000,,2013-11-01 01:42:00,
2013-10-31 18:52:00,57.0,43.0,-100.00,ESE,113,0.0,6.0,59,0.00,,,-99.99,105.000000,,2013-11-01 01:52:00,
2013-10-31 19:22:00,50.0,34.0,-100.00,ESE,107,1.0,4.0,55,0.00,,,-99.99,0.000000,,2013-11-01 02:22:00,
2013-10-31 19:32:00,50.0,34.0,-100.00,ESE,107,1.0,4.0,55,0.00,,,-99.99,0.000000,,2013-11-01 02:32:00,
2013-10-31 19:42:00,50.0,34.0,-100.00,ESE,107,1.0,4.0,55,0.00,,,-99.99,0.000000,,2013-11-01 02:42:00,
2013-10-31 19:52:00,50.0,34.0,-100.00,ESE,107,1.0,4.0,55,0.00,,,-99.99,0.000000,,2013-11-01 02:52:00,
2013-10-31 20:22:00,48.0,33.0,-100.00,ESE,110,1.0,7.0,56,0.00,,,-99.99,0.000000,,2013-11-01 03:22:00,
2013-10-31 20:33:00,48.0,33.0,-100.00,ESE,110,1.0,7.0,56,0.00,,,-99.99,0.000000,,2013-11-01 03:33:00,
2013-10-31 20:44:00,48.0,33.0,-100.00,ESE,110,1.0,7.0,56,0.00,,,-99.99,0.000000,,2013-11-01 03:44:00,
2013-10-31 20:54:00,48.0,33.0,-100.00,ESE,110,1.0,7.0,56,0.00,,,-99.99,0.000000,,2013-11-01 03:54:00,
2013-10-31 21:24:00,49.0,34.0,-100.00,ESE,106,2.0,5.0,55,0.00,,,-99.99,0.000000,,2013-11-01 04:24:00,
2013-10-31 21:34:00,49.0,34.0,-100.00,ESE,106,2.0,5.0,55,0.00,,,-99.99,0.000000,,2013-11-01 04:34:00,
2013-10-31 21:43:00,49.0,34.0,-100.00,ESE,106,2.0,5.0,55,0.00,,,-99.99,0.000000,,2013-11-01 04:43:00,
2013-10-31 21:54:00,49.0,34.0,-100.00,ESE,106,2.0,5.0,55,0.00,,,-99.99,0.000000,,2013-11-01 04:54:00,
2013-10-31 22:23:00,49.0,33.0,-100.00,ESE,104,2.0,6.0,54,0.00,,,-99.99,0.000000,,2013-11-01 05:23:00,
2013-10-31 22:33:00,49.0,33.0,-100.00,ESE,104,2.0,6.0,54,0.00,,,-99.99,0.000000,,2013-11-01 05:33:00,
2013-10-31 22:42:00,49.0,33.0,-100.00,ESE,104,2.0,6.0,54,0.00,,,-99.99,0.000000,,2013-11-01 05:42:00,
2013-10-31 22:53:00,49.0,33.0,-100.00,ESE,104,2.0,6.0,54,0.00,,,-99.99,0.000000,,2013-11-01 05:53:00,
2013-10-31 23:21:00,46.0,31.0,-100.00,ESE,103,1.0,8.0,56,0.00,,,-99.99,0.000000,,2013-11-01 06:21:00,
2013-10-31 23:32:00,46.0,31.0,-100.00,ESE,103,1.0,8.0,56,0.00,,,-99.99,0.000000,,2013-11-01 06:32:00,
2013-10-31 23:42:00,46.0,31.0,-100.00,ESE,103,1.0,8.0,56,0.00,,,-99.99,0.000000,,2013-11-01 06:42:00,
2013-10-31 23:52:00,46.0,31.0,-100.00,ESE,103,1.0,8.0,56,0.00,,,-99.99,0.000000,,2013-11-01 06:52:00,